TimeAKDT,TemperatureF,Dew PointF,Humidity,Sea Level PressureIn,VisibilityMPH,Wind Direction,Wind SpeedMPH,Gust SpeedMPH,PrecipitationIn,Events,Conditions,WindDirDegrees,DateUTC
12:16 AM,33.8,17.6,52,30.16,10.0,Calm,Calm,-,N/A,,Clear,0,2013-05-22 08:16:00
12:36 AM,33.8,17.6,52,30.16,10.0,Calm,Calm,-,N/A,,Clear,0,2013-05-22 08:36:00
12:56 AM,33.8,17.6,52,30.17,10.0,West,4.6,-,N/A,,Clear,270,2013-05-22 08:56:00
1:16 AM,33.8,19.4,56,30.16,10.0,West,5.8,-,N/A,,Clear,260,2013-05-22 09:16:00
1:36 AM,30.2,19.4,64,30.16,10.0,West,5.8,-,N/A,,Clear,260,2013-05-22 09:36:00
1:56 AM,30.2,21.2,69,30.15,10.0,WSW,6.9,-,N/A,,Clear,250,2013-05-22 09:56:00
2:16 AM,28.4,21.2,74,30.15,10.0,West,6.9,-,N/A,,Clear,260,2013-05-22 10:16:00
2:36 AM,28.4,21.2,74,30.14,10.0,West,5.8,-,N/A,,Clear,260,2013-05-22 10:36:00
2:56 AM,28.4,21.2,74,30.14,10.0,WSW,5.8,-,N/A,,Clear,250,2013-05-22 10:56:00
3:16 AM,26.6,17.6,69,30.14,10.0,West,6.9,-,N/A,,Clear,260,2013-05-22 11:16:00
3:36 AM,26.6,19.4,74,30.13,10.0,West,6.9,-,N/A,,Clear,260,2013-05-22 11:36:00
3:56 AM,26.6,19.4,74,30.13,10.0,West,6.9,-,N/A,,Clear,260,2013-05-22 11:56:00
4:16 AM,26.6,21.2,80,30.13,10.0,West,8.1,-,N/A,,Clear,260,2013-05-22 12:16:00
4:36 AM,26.6,21.2,80,30.12,10.0,West,8.1,-,N/A,,Clear,270,2013-05-22 12:36:00
4:56 AM,26.6,23.0,86,30.12,10.0,West,6.9,-,N/A,,Clear,270,2013-05-22 12:56:00
5:16 AM,26.6,21.2,80,30.12,10.0,West,6.9,-,N/A,,Clear,270,2013-05-22 13:16:00
5:36 AM,26.6,21.2,80,30.11,10.0,West,6.9,-,N/A,,Clear,270,2013-05-22 13:36:00
5:56 AM,26.6,19.4,74,30.10,10.0,West,5.8,-,N/A,,Clear,260,2013-05-22 13:56:00
6:16 AM,28.4,19.4,69,30.10,10.0,West,6.9,-,N/A,,Clear,280,2013-05-22 14:16:00
6:36 AM,30.2,19.4,64,30.10,10.0,West,5.8,-,N/A,,Clear,260,2013-05-22 14:36:00
6:56 AM,30.2,19.4,64,30.09,10.0,WSW,4.6,-,N/A,,Clear,240,2013-05-22 14:56:00
7:16 AM,30.2,19.4,64,30.09,10.0,West,4.6,-,N/A,,Clear,260,2013-05-22 15:16:00
7:36 AM,32.0,19.4,60,30.09,10.0,WSW,3.5,-,N/A,,Clear,250,2013-05-22 15:36:00
7:56 AM,33.8,21.2,60,30.09,10.0,West,4.6,-,N/A,,Clear,260,2013-05-22 15:56:00
8:16 AM,33.8,21.2,60,30.08,10.0,West,4.6,-,N/A,,Clear,260,2013-05-22 16:16:00
8:36 AM,35.6,21.2,56,30.08,10.0,WSW,4.6,-,N/A,,Clear,240,2013-05-22 16:36:00
8:56 AM,35.6,21.2,56,30.08,10.0,WSW,4.6,-,N/A,,Clear,250,2013-05-22 16:56:00
9:16 AM,37.4,21.2,52,30.08,10.0,Calm,Calm,-,N/A,,Clear,0,2013-05-22 17:16:00
9:36 AM,41.0,21.2,45,30.08,10.0,Calm,Calm,-,N/A,,Clear,0,2013-05-22 17:36:00
9:56 AM,37.4,17.6,45,30.07,10.0,NE,3.5,-,N/A,,Clear,50,2013-05-22 17:56:00
10:16 AM,37.4,19.4,48,30.07,10.0,NE,4.6,-,N/A,,Clear,40,2013-05-22 18:16:00
10:36 AM,39.2,19.4,45,30.06,10.0,NNE,3.5,-,N/A,,Clear,20,2013-05-22 18:36:00
10:56 AM,42.8,21.2,42,30.06,10.0,NNE,3.5,-,N/A,,Clear,20,2013-05-22 18:56:00
11:16 AM,42.8,21.2,42,30.06,10.0,Calm,Calm,-,N/A,,Clear,0,2013-05-22 19:16:00
11:36 AM,42.8,19.4,39,30.06,10.0,Calm,Calm,-,N/A,,Clear,0,2013-05-22 19:36:00
11:56 AM,44.6,21.2,39,30.05,10.0,North,3.5,-,N/A,,Clear,10,2013-05-22 19:56:00
12:16 PM,42.8,21.2,42,30.05,10.0,Calm,Calm,-,N/A,,Clear,0,2013-05-22 20:16:00
12:36 PM,44.6,23.0,43,30.05,10.0,Calm,Calm,-,N/A,,Clear,0,2013-05-22 20:36:00
12:56 PM,44.6,21.2,39,30.05,10.0,Calm,Calm,-,N/A,,Clear,0,2013-05-22 20:56:00
1:16 PM,44.6,24.8,46,30.04,10.0,NNE,3.5,-,N/A,,Clear,30,2013-05-22 21:16:00
1:36 PM,42.8,23.0,46,30.04,10.0,NE,3.5,-,N/A,,Partly Cloudy,40,2013-05-22 21:36:00
1:56 PM,44.6,24.8,46,30.04,10.0,North,3.5,-,N/A,,Scattered Clouds,10,2013-05-22 21:56:00
2:16 PM,44.6,21.2,39,30.03,10.0,North,4.6,-,N/A,,Mostly Cloudy,360,2013-05-22 22:16:00
2:36 PM,44.6,23.0,43,30.03,10.0,Calm,Calm,-,N/A,,Mostly Cloudy,0,2013-05-22 22:36:00
2:56 PM,46.4,24.8,43,30.03,10.0,NNE,3.5,-,N/A,,Mostly Cloudy,20,2013-05-22 22:56:00
3:16 PM,44.6,23.0,43,30.02,10.0,NNE,4.6,-,N/A,,Mostly Cloudy,30,2013-05-22 23:16:00
3:36 PM,42.8,21.2,42,30.02,10.0,NE,4.6,-,N/A,,Mostly Cloudy,50,2013-05-22 23:36:00
3:56 PM,44.6,23.0,43,30.02,10.0,NE,3.5,-,N/A,,Scattered Clouds,40,2013-05-22 23:56:00
4:16 PM,44.6,23.0,43,30.02,10.0,NE,3.5,-,N/A,,Clear,40,2013-05-23 00:16:00
4:36 PM,44.6,24.8,46,30.02,10.0,Calm,Calm,-,N/A,,Clear,0,2013-05-23 00:36:00
4:56 PM,44.6,24.8,46,30.01,10.0,ENE,4.6,-,N/A,,Scattered Clouds,60,2013-05-23 00:56:00
5:16 PM,44.6,24.8,46,30.01,10.0,NE,5.8,-,N/A,,Partly Cloudy,40,2013-05-23 01:16:00
5:36 PM,44.6,24.8,46,30.01,10.0,NE,6.9,-,N/A,,Clear,50,2013-05-23 01:36:00
5:56 PM,42.8,24.8,49,30.01,10.0,NE,6.9,-,N/A,,Clear,50,2013-05-23 01:56:00
6:16 PM,42.8,26.6,53,30.01,10.0,NE,3.5,-,N/A,,Clear,50,2013-05-23 02:16:00
6:36 PM,44.6,26.6,49,30.01,10.0,NNE,4.6,-,N/A,,Clear,20,2013-05-23 02:36:00
6:56 PM,42.8,24.8,49,30.01,10.0,NNE,6.9,-,N/A,,Clear,30,2013-05-23 02:56:00
7:16 PM,42.8,26.6,53,30.01,10.0,NNE,3.5,-,N/A,,Clear,30,2013-05-23 03:16:00
7:36 PM,42.8,26.6,53,30.01,10.0,North,4.6,-,N/A,,Clear,360,2013-05-23 03:36:00
7:56 PM,42.8,26.6,53,30.01,10.0,NNE,4.6,-,N/A,,Clear,20,2013-05-23 03:56:00
8:16 PM,42.8,26.6,53,30.02,10.0,NNE,5.8,-,N/A,,Clear,30,2013-05-23 04:16:00
8:36 PM,42.8,26.6,53,30.02,10.0,North,3.5,-,N/A,,Clear,360,2013-05-23 04:36:00
8:56 PM,42.8,26.6,53,30.02,10.0,Calm,Calm,-,N/A,,Clear,0,2013-05-23 04:56:00
9:16 PM,42.8,26.6,53,30.02,10.0,Calm,Calm,-,N/A,,Clear,0,2013-05-23 05:16:00
9:36 PM,39.2,26.6,61,30.02,10.0,Calm,Calm,-,N/A,,Clear,0,2013-05-23 05:36:00
9:56 PM,39.2,26.6,61,30.02,10.0,West,4.6,-,N/A,,Clear,260,2013-05-23 05:56:00
10:16 PM,37.4,26.6,65,30.03,10.0,West,3.5,-,N/A,,Scattered Clouds,260,2013-05-23 06:16:00
10:36 PM,37.4,26.6,65,30.03,10.0,West,5.8,-,N/A,,Partly Cloudy,260,2013-05-23 06:36:00
10:56 PM,37.4,26.6,65,30.03,10.0,WSW,4.6,-,N/A,,Partly Cloudy,250,2013-05-23 06:56:00
11:16 PM,37.4,28.4,70,30.03,10.0,WSW,8.1,-,N/A,,Clear,250,2013-05-23 07:16:00
11:36 PM,35.6,26.6,70,30.04,10.0,West,6.9,-,N/A,,Clear,270,2013-05-23 07:36:00
11:56 PM,35.6,26.6,70,30.05,10.0,West,8.1,-,N/A,,Clear,260,2013-05-23 07:56:00